• In Hungary
  • List of Countries
  • For 7 days
  • Water Temperature
  • Satellite Maps
  • Weather Map
  • News
  • Weather Widgets
  • user-avatar
    Login

    Hourly Weather Przecza

    Today, 24 October, Wednesday

    Time Temperature Precipitation Wind Pressure Humidity
    00:00 +8°C° 0.9 mm 10 mps 739 mmHg 79%
    01:00 +9°C° 0.9 mm 10 mps 739 mmHg 79%
    02:00 +8°C° 0.8 mm 10 mps 738 mmHg 79%
    03:00 +8°C° 0.8 mm 9 mps 738 mmHg 78%
    04:00 +7°C° 0.8 mm 9 mps 738 mmHg 78%
    05:00 +6°C° 0.3 mm 9 mps 738 mmHg 75%
    06:00 +6°C° 0.3 mm 9 mps 739 mmHg 73%
    07:00 +5°C° 0.3 mm 8 mps 740 mmHg 71%
    08:00 +6°C° 0.1 mm 9 mps 741 mmHg 66%
    09:00 +6°C° 0.1 mm 10 mps 741 mmHg 60%
    10:00 +7°C° 0.1 mm 10 mps 742 mmHg 55%
    11:00 +7°C° 0.1 mm 10 mps 742 mmHg 54%
    12:00 +7°C° 0.1 mm 10 mps 743 mmHg 53%
    13:00 +7°C° 0.1 mm 10 mps 743 mmHg 52%
    14:00 +7°C° 0 mm 9 mps 744 mmHg 53%
    15:00 +6°C° 0 mm 8 mps 744 mmHg 53%
    16:00 +6°C° 0 mm 7 mps 745 mmHg 53%
    17:00 +5°C° 0 mm 7 mps 746 mmHg 55%
    18:00 +5°C° 0 mm 6 mps 746 mmHg 57%
    19:00 +4°C° 0 mm 6 mps 747 mmHg 59%
    20:00 +5°C° 0 mm 5 mps 747 mmHg 62%
    21:00 +3°C° 0 mm 5 mps 748 mmHg 65%
    22:00 +3°C° 0 mm 5 mps 748 mmHg 68%
    23:00 +3°C° 0 mm 5 mps 748 mmHg 71%

    Tomorrow, 25 October, Thursday

    Time Temperature Precipitation Wind Pressure Humidity
    00:00 +3°C° 0 mm 5 mps 748 mmHg 74%
    01:00 +3°C° 0 mm 4 mps 748 mmHg 77%
    02:00 +3°C° 0 mm 4 mps 748 mmHg 79%
    03:00 +3°C° 0 mm 4 mps 747 mmHg 80%
    04:00 +3°C° 0 mm 4 mps 747 mmHg 82%
    05:00 +4°C° 0.7 mm 4 mps 746 mmHg 83%
    06:00 +5°C° 0.7 mm 4 mps 745 mmHg 85%
    07:00 +6°C° 0.7 mm 5 mps 745 mmHg 87%
    08:00 +8°C° 0.6 mm 6 mps 744 mmHg 84%
    09:00 +9°C° 0.6 mm 7 mps 744 mmHg 81%
    10:00 +11°C° 0.6 mm 8 mps 744 mmHg 78%
    11:00 +11°C° 0.1 mm 8 mps 743 mmHg 78%
    12:00 +11°C° 0.1 mm 8 mps 743 mmHg 77%
    13:00 +11°C° 0.1 mm 9 mps 743 mmHg 77%
    14:00 +11°C° 0.1 mm 8 mps 743 mmHg 77%
    15:00 +11°C° 0.1 mm 8 mps 743 mmHg 78%
    16:00 +10°C° 0.1 mm 7 mps 743 mmHg 79%
    17:00 +10°C° 0.2 mm 7 mps 743 mmHg 80%
    18:00 +10°C° 0.2 mm 7 mps 744 mmHg 81%
    19:00 +10°C° 0.2 mm 6 mps 744 mmHg 81%
    20:00 +9°C° 0.1 mm 5 mps 744 mmHg 82%
    21:00 +9°C° 0.1 mm 5 mps 744 mmHg 82%
    22:00 +8°C° 0.1 mm 4 mps 745 mmHg 82%
    23:00 +9°C° 0.1 mm 3 mps 745 mmHg 83%

    Day after tomorrow, 26 October, Friday

    Time Temperature Precipitation Wind Pressure Humidity
    00:00 +9°C° 0.1 mm 3 mps 745 mmHg 83%
    01:00 +9°C° 0.1 mm 3 mps 745 mmHg 84%
    02:00 +8°C° 0 mm 3 mps 745 mmHg 84%
    03:00 +8°C° 0 mm 3 mps 744 mmHg 85%
    04:00 +8°C° 0 mm 3 mps 744 mmHg 86%
    05:00 +8°C° 0 mm 3 mps 744 mmHg 86%
    06:00 +8°C° 0 mm 3 mps 744 mmHg 87%
    07:00 +8°C° 0 mm 3 mps 744 mmHg 87%
    08:00 +9°C° 0 mm 3 mps 744 mmHg 84%
    09:00 +10°C° 0 mm 3 mps 744 mmHg 81%
    10:00 +11°C° 0 mm 4 mps 743 mmHg 77%
    11:00 +12°C° 0 mm 4 mps 743 mmHg 73%
    12:00 +13°C° 0 mm 5 mps 742 mmHg 69%
    13:00 +14°C° 0 mm 5 mps 742 mmHg 64%
    14:00 +13°C° 0 mm 5 mps 741 mmHg 66%
    15:00 +13°C° 0 mm 5 mps 741 mmHg 67%
    16:00 +12°C° 0 mm 4 mps 740 mmHg 69%
    17:00 +12°C° 0 mm 4 mps 740 mmHg 71%
    18:00 +11°C° 0 mm 4 mps 740 mmHg 73%
    19:00 +9°C° 0 mm 5 mps 740 mmHg 75%
    20:00 +9°C° 0 mm 5 mps 740 mmHg 74%
    21:00 +8°C° 0 mm 5 mps 740 mmHg 74%
    22:00 +8°C° 0 mm 5 mps 740 mmHg 74%
    23:00 +8°C° 0 mm 5 mps 740 mmHg 74%

    27 October, Saturday

    Time Temperature Precipitation Wind Pressure Humidity
    00:00 +8°C° 0 mm 5 mps 741 mmHg 73%
    01:00 +7°C° 0 mm 6 mps 741 mmHg 73%
    02:00 +7°C° 0 mm 5 mps 741 mmHg 72%
    03:00 +6°C° 0 mm 5 mps 741 mmHg 70%
    04:00 +6°C° 0 mm 5 mps 742 mmHg 69%
    05:00 +5°C° 0 mm 5 mps 742 mmHg 70%
    06:00 +5°C° 0 mm 4 mps 742 mmHg 71%
    07:00 +4°C° 0 mm 4 mps 743 mmHg 72%
    08:00 +5°C° 0 mm 4 mps 743 mmHg 69%
    09:00 +6°C° 0 mm 4 mps 743 mmHg 66%
    10:00 +6°C° 0 mm 4 mps 744 mmHg 64%
    11:00 +7°C° 0 mm 4 mps 744 mmHg 61%
    12:00 +7°C° 0 mm 4 mps 744 mmHg 59%
    13:00 +9°C° 0 mm 3 mps 744 mmHg 57%
    14:00 +9°C° 0 mm 3 mps 744 mmHg 58%
    15:00 +8°C° 0 mm 2 mps 744 mmHg 60%
    16:00 +9°C° 0 mm 1 mps 744 mmHg 62%
    17:00 +9°C° 0 mm 1 mps 745 mmHg 63%
    18:00 +8°C° 0 mm 1 mps 745 mmHg 65%
    19:00 +7°C° 0 mm 0 mps 746 mmHg 66%
    20:00 +7°C° 0 mm 0 mps 746 mmHg 67%
    21:00 +7°C° 0 mm 1 mps 746 mmHg 68%
    22:00 +7°C° 0 mm 1 mps 746 mmHg 69%
    23:00 +7°C° 0 mm 1 mps 746 mmHg 70%

    28 October, Sunday

    Time Temperature Precipitation Wind Pressure Humidity
    00:00 +7°C° 0 mm 1 mps 746 mmHg 71%
    01:00 +7°C° 0 mm 1 mps 746 mmHg 73%
    02:00 +6°C° 0 mm 2 mps 746 mmHg 74%
    03:00 +6°C° 0 mm 2 mps 746 mmHg 75%
    04:00 +5°C° 0 mm 2 mps 746 mmHg 76%
    05:00 +4°C° 0.1 mm 3 mps 746 mmHg 77%
    06:00 +4°C° 0.1 mm 3 mps 747 mmHg 77%
    07:00 +4°C° 0.1 mm 3 mps 747 mmHg 78%
    08:00 +5°C° 0.2 mm 4 mps 747 mmHg 76%
    09:00 +5°C° 0.2 mm 5 mps 747 mmHg 75%
    10:00 +5°C° 0.2 mm 5 mps 747 mmHg 73%
    11:00 +4°C° 0.9 mm 6 mps 746 mmHg 74%
    12:00 +4°C° 0.9 mm 6 mps 746 mmHg 76%
    13:00 +4°C° 0.9 mm 6 mps 746 mmHg 77%
    14:00 +4°C° 1 mm 6 mps 746 mmHg 79%
    15:00 +3°C° 1 mm 6 mps 746 mmHg 81%
    16:00 +3°C° 1 mm 7 mps 745 mmHg 83%
    17:00 +3°C° 0.4 mm 7 mps 745 mmHg 84%
    18:00 +3°C° 0.4 mm 6 mps 745 mmHg 84%
    19:00 +3°C° 0.4 mm 6 mps 745 mmHg 85%
    20:00 +3°C° 0.5 mm 6 mps 744 mmHg 86%
    21:00 +3°C° 0.5 mm 6 mps 744 mmHg 87%
    22:00 +3°C° 0.5 mm 6 mps 743 mmHg 88%
    23:00 +3°C° 1.6 mm 6 mps 743 mmHg 89%

    29 October, Monday

    Time Temperature Precipitation Wind Pressure Humidity
    00:00 +5°C° 1.6 mm 5 mps 742 mmHg 90%
    01:00 +5°C° 1.6 mm 5 mps 741 mmHg 92%
    02:00 +5°C° 0.8 mm 5 mps 741 mmHg 92%
    03:00 +5°C° 0.8 mm 5 mps 740 mmHg 92%
    04:00 +5°C° 0.8 mm 5 mps 739 mmHg 92%
    05:00 +6°C° 1.5 mm 5 mps 739 mmHg 93%
    06:00 +6°C° 1.5 mm 4 mps 739 mmHg 93%
    07:00 +6°C° 1.5 mm 4 mps 738 mmHg 94%
    08:00 +7°C° 0.4 mm 3 mps 738 mmHg 93%
    09:00 +8°C° 0.4 mm 3 mps 738 mmHg 92%
    10:00 +8°C° 0.4 mm 3 mps 738 mmHg 92%
    11:00 +9°C° 0.2 mm 2 mps 737 mmHg 92%
    12:00 +9°C° 0.2 mm 2 mps 737 mmHg 92%
    13:00 +10°C° 0.2 mm 2 mps 737 mmHg 92%
    14:00 +10°C° 0.1 mm 2 mps 737 mmHg 93%
    15:00 +10°C° 0.1 mm 2 mps 737 mmHg 93%
    16:00 +10°C° 0.1 mm 2 mps 737 mmHg 93%
    17:00 +12°C° 0 mm 2 mps 737 mmHg 93%
    18:00 +12°C° 0 mm 2 mps 737 mmHg 93%
    19:00 +11°C° 0 mm 3 mps 737 mmHg 93%
    20:00 +11°C° 0 mm 3 mps 737 mmHg 93%
    21:00 +11°C° 0 mm 3 mps 737 mmHg 93%
    22:00 +12°C° 0 mm 4 mps 737 mmHg 92%
    23:00 +12°C° 0 mm 4 mps 737 mmHg 92%

    30 October, Tuesday

    Time Temperature Precipitation Wind Pressure Humidity
    00:00 +12°C° 0 mm 4 mps 737 mmHg 91%
    01:00 +12°C° 0 mm 4 mps 736 mmHg 91%
    02:00 +12°C° 0.1 mm 4 mps 736 mmHg 90%
    03:00 +12°C° 0.1 mm 4 mps 736 mmHg 89%
    04:00 +12°C° 0.1 mm 4 mps 735 mmHg 88%
    05:00 +12°C° 0 mm 4 mps 735 mmHg 87%
    06:00 +13°C° 0 mm 5 mps 735 mmHg 85%
    07:00 +13°C° 0 mm 5 mps 735 mmHg 84%
    08:00 +14°C° 0 mm 5 mps 736 mmHg 80%
    09:00 +15°C° 0 mm 6 mps 736 mmHg 77%
    10:00 +15°C° 0 mm 6 mps 737 mmHg 73%
    11:00 +15°C° 0 mm 5 mps 737 mmHg 71%
    12:00 +15°C° 0 mm 4 mps 738 mmHg 69%
    13:00 +17°C° 0 mm 3 mps 738 mmHg 66%
    14:00 +16°C° 0 mm 2 mps 738 mmHg 70%
    15:00 +15°C° 0 mm 2 mps 738 mmHg 73%
    16:00 +14°C° 0 mm 2 mps 739 mmHg 77%
    17:00 +13°C° 0 mm 2 mps 739 mmHg 77%
    18:00 +11°C° 0 mm 3 mps 739 mmHg 78%
    19:00 +10°C° 0 mm 3 mps 740 mmHg 79%
    20:00 +10°C° 0.1 mm 3 mps 740 mmHg 80%
    21:00 +8°C° 0.1 mm 4 mps 740 mmHg 81%
    22:00 +8°C° 0.1 mm 4 mps 741 mmHg 82%
    23:00 +8°C° 0.2 mm 4 mps 741 mmHg 81%
    Show more